Vigo, Spain

3:56 PM CEST on June 25, 2017 (GMT +0200)
Vigo

Weather History for LEVX - May, 2013

Change the Weather History Date:

Friday, May 24, 2013

  Actual Average Record
Temperature  
Mean Temperature 56 °F -  
Max Temperature 67 °F 69 °F 90 °F (2017)
Min Temperature 44 °F 53 °F 42 °F (2006)
Degree Days  
Heating Degree Days 10    
Growing Degree Days 6 (Base 50)    
Moisture  
Dew Point 42 °F    
Average Humidity 61    
Maximum Humidity 87    
Minimum Humidity 29    
Precipitation  
Precipitation 0.00 in 0.12 in - ()
Sea Level Pressure  
Sea Level Pressure 30.13 in    
Wind  
Wind Speed 10 mph ()    
Max Wind Speed 20 mph    
Max Gust Speed -    
Visibility 6.2 miles    
Events      
Averages and records for this station are not official NWS values.
T = Trace of Precipitation, MM = Missing Value Source: Averaged Metar Reports

Daily Weather History Graph

Daily Weather History Graph

Search for Another Location

Airport or City:

Trip Planner

Search our weather history database for the weather conditions in past years. The results will help you decide how hot, cold, wet, or windy it might be!

Date:

Astronomy

May. 24, 2013 Rise Set
Actual Time 7:05 AM CEST 9:57 PM CEST
Civil Twilight 6:32 AM CEST 10:30 PM CEST
Nautical Twilight 5:50 AM CEST 11:12 PM CEST
Astronomical Twilight 5:02 AM CEST 12:01 AM CEST
Moon 9:23 PM CEST (5/24) 6:27 AM CEST (5/24)
Length of Visible Light 15h 58m
Length of Day
14h 52m
Waxing Gibbous, 99% of the Moon is Illuminated
May 24
Waxing Gibbous
May 25
Full
May 31
Last Quarter
Jun 8
New
Jun 16
First Quarter

Hourly Weather History & Observations

Time (CEST) Temp. Windchill Dew Point Humidity Pressure Visibility Wind Dir Wind Speed Gust Speed Precip Events Conditions
12:30 AM 51.8 °F - 44.6 °F 76% 30.15 in - NE 8.1 mph - N/A   Clear
1:00 AM 51.8 °F - 44.6 °F 76% 30.15 in - NNE 8.1 mph - N/A   Clear
1:30 AM 51.8 °F - 44.6 °F 76% 30.15 in - NE 9.2 mph - N/A   Clear
2:00 AM 51 °F - 43 °F 66% 30.17 in 22 mi NE 5.8 mph - -  
2:00 AM 50.0 °F - 42.8 °F 76% 30.15 in - NE 5.8 mph - N/A   Clear
2:30 AM 50.0 °F - 42.8 °F 76% 30.15 in - NE 6.9 mph - N/A   Clear
3:00 AM 50.0 °F - 42.8 °F 76% 30.15 in - NNE 5.8 mph - N/A   Clear
3:30 AM 50.0 °F - 42.8 °F 76% 30.15 in - NE 6.9 mph - N/A   Clear
4:00 AM 48.2 °F - 42.8 °F 82% 30.12 in - NNE 6.9 mph - N/A   Clear
4:30 AM 48.2 °F - 42.8 °F 82% 30.12 in - NNE 6.9 mph - N/A   Clear
5:00 AM 46.4 °F 40.7 °F 41.0 °F 81% 30.12 in - North 12.7 mph - N/A   Clear
5:30 AM 46.4 °F 41.1 °F 41.0 °F 81% 30.12 in - North 11.5 mph - N/A   Clear
6:00 AM 46.4 °F 41.1 °F 41.0 °F 81% 30.12 in - North 11.5 mph - N/A   Clear
6:30 AM 44.6 °F 40.2 °F 41.0 °F 87% 30.12 in - NNE 8.1 mph - N/A   Clear
7:00 AM 44.6 °F 40.2 °F 41.0 °F 87% 30.12 in - NNE 8.1 mph - N/A   Clear
7:30 AM 44.6 °F 40.2 °F 41.0 °F 87% 30.12 in - NNE 8.1 mph - N/A   Clear
8:00 AM 49 °F - 42 °F 70% 30.15 in 25 mi NE 8.1 mph - -   Scattered Clouds
8:00 AM 44.6 °F 40.7 °F 41.0 °F 87% 30.12 in 6.2 mi NE 6.9 mph - N/A   Partly Cloudy
8:30 AM 46.4 °F 42.4 °F 41.0 °F 81% 30.12 in 6.2 mi NE 8.1 mph - N/A   Partly Cloudy
9:00 AM 46.4 °F 42.4 °F 41.0 °F 81% 30.12 in 6.2 mi NE 8.1 mph - N/A   Partly Cloudy
9:30 AM 51.8 °F - 41.0 °F 67% 30.15 in 6.2 mi Variable 2.3 mph - N/A   Partly Cloudy
10:00 AM 51.8 °F - 41.0 °F 67% 30.15 in 6.2 mi NNE 8.1 mph - N/A   Partly Cloudy
10:30 AM 55.4 °F - 41.0 °F 58% 30.15 in 6.2 mi NE 8.1 mph - N/A   Partly Cloudy
11:00 AM 55.4 °F - 39.2 °F 54% 30.15 in - NNE 8.1 mph - N/A   Clear
11:30 AM 55.4 °F - 41.0 °F 58% 30.15 in - NE 8.1 mph - N/A   Clear
12:00 PM 59.0 °F - 41.0 °F 51% 30.15 in - North 12.7 mph - N/A   Clear
12:30 PM 59.0 °F - 41.0 °F 51% 30.15 in - North 13.8 mph - N/A   Clear
1:00 PM 62.6 °F - 42.8 °F 48% 30.15 in - North 15.0 mph - N/A   Clear
1:30 PM 62.6 °F - 41.0 °F 45% 30.15 in - North 13.8 mph - N/A   Clear
2:00 PM 63 °F - 39 °F 29% 30.14 in 31 mi North 17.3 mph - -  
2:00 PM 62.6 °F - 41.0 °F 45% 30.15 in - North 16.1 mph - N/A   Clear
2:30 PM 64.4 °F - 41.0 °F 42% 30.15 in - North 17.3 mph - N/A   Clear
3:00 PM 64.4 °F - 39.2 °F 40% 30.12 in - North 16.1 mph - N/A   Clear
3:30 PM 66.2 °F - 39.2 °F 37% 30.12 in - North 13.8 mph - N/A   Clear
4:00 PM 66.2 °F - 39.2 °F 37% 30.12 in - North 16.1 mph - N/A   Clear
4:30 PM 64.4 °F - 39.2 °F 40% 30.12 in - North 16.1 mph - N/A   Clear
5:00 PM 66.2 °F - 41.0 °F 40% 30.12 in - North 15.0 mph - N/A   Clear
5:30 PM 66.2 °F - 42.8 °F 43% 30.12 in - North 15.0 mph - N/A   Clear
6:00 PM 66.2 °F - 44.6 °F 46% 30.12 in - North 17.3 mph - N/A   Clear
6:30 PM 66.2 °F - 44.6 °F 46% 30.12 in - North 16.1 mph - N/A   Clear
7:00 PM 66.2 °F - 44.6 °F 46% 30.09 in - North 17.3 mph - N/A   Clear
7:30 PM 64.4 °F - 44.6 °F 49% 30.09 in - North 18.4 mph - N/A   Clear
8:00 PM 63 °F - 42 °F 35% 30.11 in 31 mi North 18.4 mph - -  
8:00 PM 62.6 °F - 42.8 °F 48% 30.09 in - North 18.4 mph - N/A   Clear
8:30 PM 60.8 °F - 42.8 °F 52% 30.12 in - North 19.6 mph - N/A   Clear
9:00 PM 59.0 °F - 42.8 °F 55% 30.12 in - North 19.6 mph - N/A   Clear
9:30 PM 57.2 °F - 42.8 °F 59% 30.12 in - North 17.3 mph - N/A   Clear
10:00 PM 55.4 °F - 42.8 °F 63% 30.12 in - North 18.4 mph - N/A   Clear
10:30 PM 55.4 °F - 42.8 °F 63% 30.12 in - North 18.4 mph - N/A   Clear
11:00 PM 55.4 °F - 42.8 °F 63% 30.12 in - North 18.4 mph - N/A   Clear
11:30 PM 55.4 °F - 42.8 °F 63% 30.12 in - North 18.4 mph - N/A   Clear